Regional Weather Roundup
Issued by NWS

Home | Current Version | Previous Version | Text Only | Print | Product List | Glossary Off
Versions: 1 2 3 4 5 6 7 8 9 10 11 12 13 14 15 16 17 18 19 20 21 22 23 24 25 26 27

000
ASUS45 KSLC 190110
RWRUT

UTAH REGIONAL WEATHER ROUNDUP
NATIONAL WEATHER SERVICE SALT LAKE CITY UT
600 PM MST WED JAN 18 2017

UTZ001>011-023>025-190200-

NORTHERN UTAH

CITY           SKY/WX    TMP DP  RH WIND       PRES   REMARKS
BRIGHAM CITY     N/A     22  16  79 E5        29.97F WCI  15
HILL AFB       MOCLDY    19  15  84 N5        29.94F WCI  13
LOGAN          MOCLDY    11   7  84 SE3       29.98F FOG
OGDEN          MOCLDY    20  17  88 NE8       29.96F FOG     WCI  10
SALT LAKE CITY MOCLDY    24  21  88 N13       29.97F FOG     WCI  12
TOOELE VALLEY  CLOUDY    27  23  86 CALM      29.99F FOG
WENDOVER       CLOUDY    25  18  74 E3        29.96F
HEBER CITY     MOCLDY    12   5  73 CALM      29.91S
WEST JORDAN    MOCLDY    24  24 100 NW13      29.97S WCI  12

$$

UTZ011>015-024>027-190200-

CENTRAL/NORTHEAST UTAH

CITY           SKY/WX    TMP DP  RH WIND       PRES   REMARKS
PROVO AIRPORT  MOCLDY    28  22  78 N3        29.96R
MOAB/CANYONLAN CLEAR     34  28  79 NW7       29.99S WCI  28
DELTA          MOCLDY    36  25  64 NW5       29.93R WCI  32
PRICE          CLOUDY    20  12  71 NE6       29.99S WCI  12
RICHFIELD      CLEAR     34  25  69 CALM      29.94S
ROOSEVELT      CLOUDY    14   9  79 SW7       30.09S WCI   4
VERNAL         CLOUDY    10   7  87 SW5       30.05R WCI   2

$$

UTZ013>016-019>022-027-190200-

SOUTHERN UTAH

CITY           SKY/WX    TMP DP  RH WIND       PRES   REMARKS
BRYCE CANYON   MOCLDY    17  12  80 SW7       30.00S WCI   8
CEDAR CITY     MOCLDY    39  15  37 SW8       29.93S WCI  33
MILFORD        MOCLDY    40  23  50 SW20      29.90S WCI  30
ST GEORGE      MOCLDY    48  30  49 W6        30.01S
HANKSVILLE     PTCLDY    36  27  69 MISG      30.03S
KANAB          CLEAR     41  28  60 CALM      30.04S
BLANDING       PTCLDY    37  27  67 SW5       30.07S WCI  33

$$

REGIONAL REPORTS     COLORADO/ARIZONA

CITY           SKY/WX    TMP DP  RH WIND       PRES   REMARKS
CRAIG, CO      CLOUDY    12   7  80 CALM      29.96F
GRAND JUNCTION CLEAR     36  30  79 NW5       29.98S WCI  32
RIFLE, CO      CLOUDY    33  25  72 SE6       29.97F WCI  28
MONTROSE, CO   CLOUDY    39  27  62 CALM      29.99S
CORTEZ, CO     CLEAR     36  29  75 NW5       30.01S WCI  32
COLORADO CITY    N/A     41  27  56 N6        30.03R
PAGE, AZ       PTCLDY    44  27  51 E5        29.98F
GRAND CANYON   PTCLDY    36  22  56 W3        30.05S
KINGMAN, AZ    PTCLDY    49  24  37 SW12      30.03R
FLAGSTAFF, AZ  PTCLDY    37  26  64 SW7       30.07R WCI  32

$$

REGIONAL REPORTS    NEVADA/IDAHO/WYOMING

CITY           SKY/WX    TMP DP  RH WIND       PRES   REMARKS
LAS VEGAS, NV  MOCLDY    54  24  31 N5        29.95F
ELY, NY        CLOUDY    34  22  61 SW9       29.89F WCI  27
ELKO, NV       CLOUDY    26  17  68 E8        29.84F WCI  18
POCATELLO, ID  CLOUDY    21  15  78 CALM      29.89F
BURLEY, ID     CLOUDY    32  22  66 NE8       29.81F WCI  25
FORT BRIDGER,    N/A     16  10  74 SW6       29.92R WCI   8
EVANSTON, WY   CLOUDY    24   9  52 CALM      29.89R
ROCK SPRINGS,  CLOUDY    11   4  73 CALM      29.89R

$$




USA.gov is the U.S. government's official web portal to all federal, state and local government web resources and services.